User: anonymous   Login
Location: Unspecified
(0.0000°N, 0.0000°E)
Time: 00:12:52
(UTC+00:00)
Language:

HJ-1B - Orbit

View from above orbital plane
View from above orbital plane
View from above satellite
View from above satellite

Ground track
Ground track

The orbit data is extracted from the following two-line orbital elements,

1 33321U 08041B   18112.52685940  .00000134  00000-0  26111-4 0  9990
2 33321  97.8986 177.8686 0035913 121.8349 238.6368 14.77000150518435
Epoch (UTC): 22 April 2018 12:38:40
Eccentricity: 0.0035913
inclination: 97.8986°
perigee height: 613 km
apogee height: 664 km
right ascension of ascending node: 177.8686°
argument of perigee: 121.8349°
revolutions per day: 14.77000150
mean anomaly at epoch: 238.6368°
orbit number at epoch: 51843

The dashed part of the orbit path shows where the satellite is in the earth's shadow,  

DLR